Installation & Licensing

Reply
New Member
josh.beno
Posts: 1
Registered: ‎12-19-2012
Message 1 of 2 (1,047 Views)

AutoCAD Plant Design Suite 2013 not Installing

1047 Views, 1 Replies
12-19-2012 03:51 PM

I am getting error messages when attempting to load AutoCAD Plant Design Suite 2013.  I have Windows XP Pro SP3.

 

Here is the install Log:

 

2012/12/19:07:13:30 e40234 AFC001709 === Setup started on AFC001709 by e40234 ===
2012/12/19:07:13:30 e40234 AFC001709 Launch
2012/12/19:07:14:19 e40234 AFC001709 System Component Update MSI Runtime (3010)
2012/12/19:07:15:43 e40234 AFC001709 === Setup ended ===

2012/12/19:07:14:37 e40234 AFC001709 === Setup started on AFC001709 by e40234 ===
2012/12/19:07:14:37 e40234 AFC001709 Launch
2012/12/19:07:15:43 e40234 AFC001709 PageOpen LaunchDialog
2012/12/19:07:25:23 e40234 AFC001709 PageOpen LicenseDialog
2012/12/19:07:25:29 e40234 AFC001709 PageOpen ProductInfoDialog
2012/12/19:07:28:13 e40234 AFC001709 PageOpen ProductSelectionDialog2
2012/12/19:07:28:34 e40234 AFC001709 PageOpen FullProgressDialog
2012/12/19:07:28:34 e40234 AFC001709 Installing Microsoft Visual C++ 2010 SP1 Redistributable (x86): C:\Autodesk\Autodesk_Plant_Design_Suite_Premium_2013_English_Win_32bit\3rdParty\x86\VCRedist\2010SP1\vcredist_x86.exe /q /norestart /l C:\DOCUME~1\e40234\LOCALS~1\Temp\vcredist_x86_2010.log
2012/12/19:07:28:42 e40234 AFC001709 Install Microsoft Visual C++ 2010 SP1 Redistributable (x86) Succeeded
2012/12/19:07:28:42 e40234 AFC001709 Installing .NET Framework Runtime 4.0: C:\Autodesk\Autodesk_Plant_Design_Suite_Premium_2013_English_Win_32bit\3rdParty\NET\4\wcu\dotNetFramework\dotNetFx40_Full_x86_x64.exe /q
2012/12/19:07:30:50 e40234 AFC001709 Install .NET Framework Runtime 4.0 Succeeded
2012/12/19:07:30:50 e40234 AFC001709 Installing .NET Framework Runtime 4.0 KB2468871: C:\Autodesk\Autodesk_Plant_Design_Suite_Premium_2013_English_Win_32bit\3rdParty\NET\4\wcu\dotNetFramework\NDP40-KB2468871-v2-x86.exe /q /norestart
2012/12/19:07:33:36 e40234 AFC001709 Install .NET Framework Runtime 4.0 KB2468871 Succeeded
2012/12/19:07:33:37 e40234 AFC001709 Installing Autodesk® Design Review: TRANSFORMS="C:\DOCUME~1\e40234\LOCALS~1\Temp\_AI632.tmp\x86\en-us\Components\adr2013\SetupDesignReview2013-standalone.mst" ADSK_EULA_STATUS=#1 MUILANG=en-us ADSK_SOURCE_ROOT="C:\Autodesk\Autodesk_Plant_Design_Suite_Premium_2013_English_Win_32bit\" INSTALLDIR="C:\Program Files\Autodesk\Autodesk Design Review 2013\" FILESINUSETEXT="" REBOOT=ReallySuppress ADSK_SETUP_EXE=1

2012/12/19:07:34:53 e40234 AFC001709 Install Autodesk® Design Review Succeeded
2012/12/19:07:34:53 e40234 AFC001709 Installing Microsoft Visual C++ 2008 SP1 Redistributable (x86): C:\Autodesk\Autodesk_Plant_Design_Suite_Premium_2013_English_Win_32bit\3rdParty\x86\VCRedist\2008SP1\vcredist_x86.exe /q
2012/12/19:07:35:06 e40234 AFC001709 Install Microsoft Visual C++ 2008 SP1 Redistributable (x86) Succeeded
2012/12/19:07:35:06 e40234 AFC001709 Installing DirectX® Runtime: C:\Autodesk\Autodesk_Plant_Design_Suite_Premium_2013_English_Win_32bit\3rdParty\DirectX\DXSETUP.exe /silent
2012/12/19:07:37:06 e40234 AFC001709 Install DirectX® Runtime Succeeded
2012/12/19:07:37:06 e40234 AFC001709 Installing FaroSDK: ADSK_EULA_STATUS=#1 MUILANG=en-us ADSK_SOURCE_ROOT="C:\Autodesk\Autodesk_Plant_Design_Suite_Premium_2013_English_Win_32bit\" FILESINUSETEXT="" REBOOT=ReallySuppress ADSK_SETUP_EXE=1

2012/12/19:07:37:13 e40234 AFC001709 Install FaroSDK Succeeded
2012/12/19:07:37:13 e40234 AFC001709 Installing Autodesk Content Service: INSTALLMODE=PRIVATE AUTOSTART=0 TRANSFORMS="C:\Autodesk\Autodesk_Plant_Design_Suite_Premium_2013_English_Win_32bit\x86\en-us\Tools\snap\ContentService.mst" ADSK_EULA_STATUS=#1 MUILANG=en-us ADSK_SOURCE_ROOT="C:\Autodesk\Autodesk_Plant_Design_Suite_Premium_2013_English_Win_32bit\" FILESINUSETEXT="" REBOOT=ReallySuppress ADSK_SETUP_EXE=1

2012/12/19:07:37:44 e40234 AFC001709 Install Autodesk Content Service Succeeded
2012/12/19:07:37:44 e40234 AFC001709 Installing Autodesk Content Service Language Pack: ADSK_EULA_STATUS=#1 MUILANG=en-us ADSK_SOURCE_ROOT="C:\Autodesk\Autodesk_Plant_Design_Suite_Premium_2013_English_Win_32bit\" FILESINUSETEXT="" REBOOT=ReallySuppress ADSK_SETUP_EXE=1

2012/12/19:07:37:55 e40234 AFC001709 Install Autodesk Content Service Language Pack Succeeded
2012/12/19:07:38:02 e40234 AFC001709 Installing AutoCAD® Plant 3D 2013: TRANSFORMS="C:\Autodesk\Autodesk_Plant_Design_Suite_Premium_2013_English_Win_32bit\x86\en-us\PLNT3D\PLNT3D.mst;C:\DOCUME~1\e40234\LOCALS~1\Temp\_AI632.tmp\x86\PLNT3D\PLNT3D-standalone.mst" MSINEWINSTANCE=1 ADSK_EULA_STATUS=#1 MUILANG=en-us ADSK_SOURCE_ROOT="C:\Autodesk\Autodesk_Plant_Design_Suite_Premium_2013_English_Win_32bit\" INSTALLDIR="C:\Program Files\Autodesk\AutoCAD Plant 3D 2013 - English\" FILESINUSETEXT="" REBOOT=ReallySuppress ADSK_SETUP_EXE=1

2012/12/19:07:44:31 e40234 AFC001709 Install AutoCAD® Plant 3D 2013 Failed Installation aborted, Result=1602
2012/12/19:07:44:35 e40234 AFC001709 Rollback Autodesk Content Service Language Pack Succeeded
2012/12/19:07:45:23 e40234 AFC001709 Rollback Autodesk Content Service Succeeded
2012/12/19:07:45:24 e40234 AFC001709 Rollback FaroSDK Succeeded
2012/12/19:07:45:24 e40234 AFC001709 Rollback DirectX® Runtime Failed Failure is ignored, Result=1619
2012/12/19:07:46:50 e40234 AFC001709 Rollback Autodesk® Design Review Succeeded
2012/12/19:07:46:50 e40234 AFC001709 Rollback .NET Framework Runtime 4.0 KB2468871 Failed Installation aborted, Result=1619
2012/12/19:07:46:50 e40234 AFC001709 Rollback .NET Framework Runtime 4.0 Failed Installation aborted, Result=1619
2012/12/19:07:46:50 e40234 AFC001709 Rollback Microsoft Visual C++ 2010 SP1 Redistributable (x86) Failed Installation aborted, Result=1619
2012/12/19:07:47:09 e40234 AFC001709 PageOpen InstallCompleteDialog
2012/12/19:08:03:36 e40234 AFC001709 === Setup ended ===

2012/12/19:08:04:43 e40234 AFC001709 === Setup started on AFC001709 by e40234 ===
2012/12/19:08:04:43 e40234 AFC001709 Launch
2012/12/19:08:06:29 e40234 AFC001709 === Setup ended ===

2012/12/19:08:05:23 e40234 AFC001709 === Setup started on AFC001709 by e40234 ===
2012/12/19:08:05:23 e40234 AFC001709 Launch
2012/12/19:08:06:29 e40234 AFC001709 PageOpen LaunchDialog
2012/12/19:08:08:02 e40234 AFC001709 PageOpen LicenseDialog
2012/12/19:08:08:05 e40234 AFC001709 PageOpen ProductInfoDialog
2012/12/19:08:10:16 e40234 AFC001709 PageOpen ProductSelectionDialog2
2012/12/19:08:10:38 e40234 AFC001709 PageOpen FullProgressDialog
2012/12/19:08:10:38 e40234 AFC001709 Installing Autodesk® Design Review: TRANSFORMS="C:\DOCUME~1\e40234\LOCALS~1\Temp\_AI9C5.tmp\x86\en-us\Components\adr2013\SetupDesignReview2013-standalone.mst" ADSK_EULA_STATUS=#1 MUILANG=en-us ADSK_SOURCE_ROOT="C:\Autodesk\Autodesk_Plant_Design_Suite_Premium_2013_English_Win_32bit\" INSTALLDIR="C:\Program Files\Autodesk\Autodesk Design Review 2013\" FILESINUSETEXT="" REBOOT=ReallySuppress ADSK_SETUP_EXE=1

2012/12/19:08:11:28 e40234 AFC001709 Install Autodesk® Design Review Succeeded
2012/12/19:08:11:28 e40234 AFC001709 Installing DirectX® Runtime: C:\Autodesk\Autodesk_Plant_Design_Suite_Premium_2013_English_Win_32bit\3rdParty\DirectX\DXSETUP.exe /silent
2012/12/19:08:12:28 e40234 AFC001709 Install DirectX® Runtime Succeeded
2012/12/19:08:12:28 e40234 AFC001709 Installing FaroSDK: ADSK_EULA_STATUS=#1 MUILANG=en-us ADSK_SOURCE_ROOT="C:\Autodesk\Autodesk_Plant_Design_Suite_Premium_2013_English_Win_32bit\" FILESINUSETEXT="" REBOOT=ReallySuppress ADSK_SETUP_EXE=1

2012/12/19:08:12:35 e40234 AFC001709 Install FaroSDK Succeeded
2012/12/19:08:12:35 e40234 AFC001709 Installing Autodesk Content Service: INSTALLMODE=PRIVATE AUTOSTART=0 TRANSFORMS="C:\Autodesk\Autodesk_Plant_Design_Suite_Premium_2013_English_Win_32bit\x86\en-us\Tools\snap\ContentService.mst" ADSK_EULA_STATUS=#1 MUILANG=en-us ADSK_SOURCE_ROOT="C:\Autodesk\Autodesk_Plant_Design_Suite_Premium_2013_English_Win_32bit\" FILESINUSETEXT="" REBOOT=ReallySuppress ADSK_SETUP_EXE=1

2012/12/19:08:12:49 e40234 AFC001709 Install Autodesk Content Service Succeeded
2012/12/19:08:12:49 e40234 AFC001709 Installing Autodesk Content Service Language Pack: ADSK_EULA_STATUS=#1 MUILANG=en-us ADSK_SOURCE_ROOT="C:\Autodesk\Autodesk_Plant_Design_Suite_Premium_2013_English_Win_32bit\" FILESINUSETEXT="" REBOOT=ReallySuppress ADSK_SETUP_EXE=1

2012/12/19:08:12:54 e40234 AFC001709 Install Autodesk Content Service Language Pack Succeeded
2012/12/19:08:12:54 e40234 AFC001709 Installing AutoCAD® Plant 3D 2013: TRANSFORMS="C:\Autodesk\Autodesk_Plant_Design_Suite_Premium_2013_English_Win_32bit\x86\en-us\PLNT3D\PLNT3D.mst;C:\DOCUME~1\e40234\LOCALS~1\Temp\_AI9C5.tmp\x86\PLNT3D\PLNT3D-standalone.mst" MSINEWINSTANCE=1 ADSK_EULA_STATUS=#1 MUILANG=en-us ADSK_SOURCE_ROOT="C:\Autodesk\Autodesk_Plant_Design_Suite_Premium_2013_English_Win_32bit\" INSTALLDIR="C:\Program Files\Autodesk\AutoCAD Plant 3D 2013 - English\" FILESINUSETEXT="" REBOOT=ReallySuppress ADSK_SETUP_EXE=1

2012/12/19:08:23:31 e40234 AFC001709 Install AutoCAD® Plant 3D 2013 Succeeded Reboot is required
2012/12/19:08:23:37 e40234 AFC001709 Installing AutoCAD® Plant 3D 2013 Language Pack: TRANSFORMS="C:\DOCUME~1\e40234\LOCALS~1\Temp\_AI9C5.tmp\_laAF2.tmp.mst" ADSK_EULA_STATUS=#1 MUILANG=en-us ADSK_SOURCE_ROOT="C:\Autodesk\Autodesk_Plant_Design_Suite_Premium_2013_English_Win_32bit\" INSTALLDIR="C:\Program Files\Autodesk\AutoCAD Plant 3D 2013 - English\" FILESINUSETEXT="" REBOOT=ReallySuppress ADSK_SETUP_EXE=1

2012/12/19:08:25:24 e40234 AFC001709 Install AutoCAD® Plant 3D 2013 Language Pack Succeeded
2012/12/19:08:25:24 e40234 AFC001709 Installing AutoCAD® Plant 3D 2013 Product Specific Pack: INSTALLSHORTCUTS=0 ADSK_EULA_STATUS=#1 MUILANG=en-us ADSK_SOURCE_ROOT="C:\Autodesk\Autodesk_Plant_Design_Suite_Premium_2013_English_Win_32bit\" FILESINUSETEXT="" REBOOT=ReallySuppress ADSK_SETUP_EXE=1

2012/12/19:08:25:49 e40234 AFC001709 Install AutoCAD® Plant 3D 2013 Product Specific Pack Succeeded
2012/12/19:08:25:52 e40234 AFC001709 Installing AutoCAD® 2013: TRANSFORMS="C:\Autodesk\Autodesk_Plant_Design_Suite_Premium_2013_English_Win_32bit\x86\en-us\acad\acad.mst;C:\DOCUME~1\e40234\LOCALS~1\Temp\_AI9C5.tmp\x86\acad\acad-standalone.mst" ADSK_EULA_STATUS=#1 MUILANG=en-us ADSK_SOURCE_ROOT="C:\Autodesk\Autodesk_Plant_Design_Suite_Premium_2013_English_Win_32bit\" INSTALLDIR="C:\Program Files\Autodesk\AutoCAD 2013\" FILESINUSETEXT="" REBOOT=ReallySuppress ADSK_SETUP_EXE=1

2012/12/19:08:32:15 e40234 AFC001709 Install AutoCAD® 2013 Succeeded
2012/12/19:08:32:17 e40234 AFC001709 Installing AutoCAD® 2013 Language Pack: TRANSFORMS="C:\DOCUME~1\e40234\LOCALS~1\Temp\_AI9C5.tmp\_laB4C.tmp.mst" ADSK_EULA_STATUS=#1 MUILANG=en-us MUIHIDEARP=1 ADSK_SOURCE_ROOT="C:\Autodesk\Autodesk_Plant_Design_Suite_Premium_2013_English_Win_32bit\" INSTALLDIR="C:\Program Files\Autodesk\AutoCAD 2013\" FILESINUSETEXT="" REBOOT=ReallySuppress ADSK_SETUP_EXE=1

2012/12/19:08:33:27 e40234 AFC001709 Install AutoCAD® 2013 Language Pack Succeeded
2012/12/19:08:33:27 e40234 AFC001709 Installing AutoCAD® 2013 Product Specific Pack: INSTALLSHORTCUTS=0 ADSK_EULA_STATUS=#1 MUILANG=en-us ADSK_SOURCE_ROOT="C:\Autodesk\Autodesk_Plant_Design_Suite_Premium_2013_English_Win_32bit\" FILESINUSETEXT="" REBOOT=ReallySuppress ADSK_SETUP_EXE=1

2012/12/19:08:33:49 e40234 AFC001709 Install AutoCAD® 2013 Product Specific Pack Succeeded
2012/12/19:08:33:49 e40234 AFC001709 Installing Autodesk Cloud sync: ADLANGUAGE=en-us ADSK_EULA_STATUS=#1 MUILANG=en-us ADSK_SOURCE_ROOT="C:\Autodesk\Autodesk_Plant_Design_Suite_Premium_2013_English_Win_32bit\" FILESINUSETEXT="" REBOOT=ReallySuppress ADSK_SETUP_EXE=1

2012/12/19:08:33:58 e40234 AFC001709 Install Autodesk Cloud sync Succeeded
2012/12/19:08:33:58 e40234 AFC001709 Installing Microsoft Visual C++ 2005 Redistributable (x86): C:\Autodesk\Autodesk_Plant_Design_Suite_Premium_2013_English_Win_32bit\3rdParty\x86\VCRedist\2005\vcredist_x86.exe /q:a /T:C:\WINDOWS\temp /c:"VCREDI~3.EXE /q:a /c:""msiexec /i vcredist.msi /qn /l*v C:\DOCUME~1\e40234\LOCALS~1\Temp\vcredist_x86_2005.log"" "
2012/12/19:08:34:12 e40234 AFC001709 Install Microsoft Visual C++ 2005 Redistributable (x86) Succeeded
2012/12/19:08:34:12 e40234 AFC001709 Installing Microsoft Visual C++ 2008 KB958314 (ATL) (x86): ADSK_EULA_STATUS=#1 MUILANG=en-us ADSK_SOURCE_ROOT="C:\Autodesk\Autodesk_Plant_Design_Suite_Premium_2013_English_Win_32bit\" FILESINUSETEXT="" REBOOT=ReallySuppress ADSK_SETUP_EXE=1

2012/12/19:08:34:17 e40234 AFC001709 Install Microsoft Visual C++ 2008 KB958314 (ATL) (x86) Succeeded
2012/12/19:08:34:17 e40234 AFC001709 Installing Microsoft Visual C++ 2008 KB958314 (MFC) (x86): ADSK_EULA_STATUS=#1 MUILANG=en-us ADSK_SOURCE_ROOT="C:\Autodesk\Autodesk_Plant_Design_Suite_Premium_2013_English_Win_32bit\" FILESINUSETEXT="" REBOOT=ReallySuppress ADSK_SETUP_EXE=1

2012/12/19:08:34:21 e40234 AFC001709 Install Microsoft Visual C++ 2008 KB958314 (MFC) (x86) Succeeded
2012/12/19:08:34:21 e40234 AFC001709 Installing Microsoft Visual C++ 2008 KB958314 (CRT) (x86): ADSK_EULA_STATUS=#1 MUILANG=en-us ADSK_SOURCE_ROOT="C:\Autodesk\Autodesk_Plant_Design_Suite_Premium_2013_English_Win_32bit\" FILESINUSETEXT="" REBOOT=ReallySuppress ADSK_SETUP_EXE=1

2012/12/19:08:34:26 e40234 AFC001709 Install Microsoft Visual C++ 2008 KB958314 (CRT) (x86) Succeeded
2012/12/19:08:34:26 e40234 AFC001709 Installing Microsoft Visual C++ 2008 KB958314 (OpenMP) (x86): ADSK_EULA_STATUS=#1 MUILANG=en-us ADSK_SOURCE_ROOT="C:\Autodesk\Autodesk_Plant_Design_Suite_Premium_2013_English_Win_32bit\" FILESINUSETEXT="" REBOOT=ReallySuppress ADSK_SETUP_EXE=1

2012/12/19:08:34:30 e40234 AFC001709 Install Microsoft Visual C++ 2008 KB958314 (OpenMP) (x86) Succeeded
2012/12/19:08:34:30 e40234 AFC001709 Installing Microsoft Visual C++ 2005 SP1 Redistributable ATL Security Update (x86): C:\Autodesk\Autodesk_Plant_Design_Suite_Premium_2013_English_Win_32bit\3rdParty\x86\VCRedist\2005SP1ATL\vcredist_x86.exe /q:a /T:C:\WINDOWS\temp /c:"VCREDI~3.EXE /q:a /c:""msiexec /i vcredist.msi /qn /l*v C:\DOCUME~1\e40234\LOCALS~1\Temp\vcredist_x86_2005.log"" "
2012/12/19:08:34:58 e40234 AFC001709 Install Microsoft Visual C++ 2005 SP1 Redistributable ATL Security Update (x86) Succeeded
2012/12/19:08:35:02 e40234 AFC001709 Installing Autodesk® Revit® Structure 2013: TRANSFORMS="C:\Autodesk\Autodesk_Plant_Design_Suite_Premium_2013_English_Win_32bit\x86\en-us\RST2013\RST2013.mst;C:\DOCUME~1\e40234\LOCALS~1\Temp\_AI9C5.tmp\x86\RST2013\RST2013-standalone.mst" MSINEWINSTANCE=1 ADSK_EULA_STATUS=#1 MUILANG=en-us ADSK_SOURCE_ROOT="C:\Autodesk\Autodesk_Plant_Design_Suite_Premium_2013_English_Win_32bit\" INSTALLDIR="C:\Program Files\Autodesk\" FILESINUSETEXT="" REBOOT=ReallySuppress ADSK_SETUP_EXE=1

2012/12/19:08:44:57 e40234 AFC001709 Install Autodesk® Revit® Structure 2013 Succeeded
2012/12/19:08:44:58 e40234 AFC001709 Installing Autodesk® Revit® Structure 2013 Language Pack: TRANSFORMS="C:\DOCUME~1\e40234\LOCALS~1\Temp\_AI9C5.tmp\_laBE1.tmp.mst" ADSK_EULA_STATUS=#1 MUILANG=en-us ADSK_SOURCE_ROOT="C:\Autodesk\Autodesk_Plant_Design_Suite_Premium_2013_English_Win_32bit\" INSTALLDIR="C:\Program Files\Autodesk\" FILESINUSETEXT="" REBOOT=ReallySuppress ADSK_SETUP_EXE=1

2012/12/19:08:45:18 e40234 AFC001709 Install Autodesk® Revit® Structure 2013 Language Pack Succeeded
2012/12/19:08:45:18 e40234 AFC001709 Installing Autodesk® Material Library 2013: ADSK_EULA_STATUS=#1 MUILANG=en-us ADSK_SOURCE_ROOT="C:\Autodesk\Autodesk_Plant_Design_Suite_Premium_2013_English_Win_32bit\" FILESINUSETEXT="" REBOOT=ReallySuppress ADSK_SETUP_EXE=1

2012/12/19:08:45:56 e40234 AFC001709 Install Autodesk® Material Library 2013 Succeeded
2012/12/19:08:45:56 e40234 AFC001709 Installing Autodesk® Material Library 2013 - Base Image Library: ADSK_EULA_STATUS=#1 MUILANG=en-us ADSK_SOURCE_ROOT="C:\Autodesk\Autodesk_Plant_Design_Suite_Premium_2013_English_Win_32bit\" FILESINUSETEXT="" REBOOT=ReallySuppress ADSK_SETUP_EXE=1

2012/12/19:08:46:24 e40234 AFC001709 Install Autodesk® Material Library 2013 - Base Image Library Succeeded
2012/12/19:08:46:24 e40234 AFC001709 Installing Autodesk® Material Library 2013 - Low Resolution Image Library: ADSK_EULA_STATUS=#1 MUILANG=en-us ADSK_SOURCE_ROOT="C:\Autodesk\Autodesk_Plant_Design_Suite_Premium_2013_English_Win_32bit\" FILESINUSETEXT="" REBOOT=ReallySuppress ADSK_SETUP_EXE=1

2012/12/19:08:47:11 e40234 AFC001709 Install Autodesk® Material Library 2013 - Low Resolution Image Library Succeeded
2012/12/19:08:47:11 e40234 AFC001709 Installing Autodesk Workflows - Plant Design Suite 2013: SUITES_TYPE=Premium ADSK_EULA_STATUS=#1 MUILANG=en-us ADSK_SOURCE_ROOT="C:\Autodesk\Autodesk_Plant_Design_Suite_Premium_2013_English_Win_32bit\" FILESINUSETEXT="" REBOOT=ReallySuppress ADSK_SETUP_EXE=1

2012/12/19:08:47:21 e40234 AFC001709 Install Autodesk Workflows - Plant Design Suite 2013 Succeeded
2012/12/19:08:47:25 e40234 AFC001709 Installing AutoCAD® Structural Detailing 2013: TRANSFORMS="C:\Autodesk\Autodesk_Plant_Design_Suite_Premium_2013_English_Win_32bit\x86\en-us\asd\asd.mst;C:\DOCUME~1\e40234\LOCALS~1\Temp\_AI9C5.tmp\x86\asd\asd-standalone.mst" ADSK_EULA_STATUS=#1 MUILANG=en-us ADSK_SOURCE_ROOT="C:\Autodesk\Autodesk_Plant_Design_Suite_Premium_2013_English_Win_32bit\" INSTALLDIR="C:\Program Files\Autodesk\AutoCAD 2013\" FILESINUSETEXT="" REBOOT=ReallySuppress ADSK_SETUP_EXE=1

2012/12/19:08:56:51 e40234 AFC001709 Install AutoCAD® Structural Detailing 2013 Succeeded
2012/12/19:08:56:53 e40234 AFC001709 Installing AutoCAD® Structural Detailing 2013 Language Pack: TRANSFORMS="C:\DOCUME~1\e40234\LOCALS~1\Temp\_AI9C5.tmp\_laC5E.tmp.mst" ADSK_EULA_STATUS=#1 MUILANG=en-us MUIHIDEARP=1 ADSK_SOURCE_ROOT="C:\Autodesk\Autodesk_Plant_Design_Suite_Premium_2013_English_Win_32bit\" INSTALLDIR="C:\Program Files\Autodesk\AutoCAD 2013\" FILESINUSETEXT="" REBOOT=ReallySuppress ADSK_SETUP_EXE=1

2012/12/19:08:58:45 e40234 AFC001709 Install AutoCAD® Structural Detailing 2013 Language Pack Succeeded
2012/12/19:08:58:45 e40234 AFC001709 Installing AutoCAD® Structural Detailng Product Specific Pack: INSTALLSHORTCUTS=0 ADSK_EULA_STATUS=#1 MUILANG=en-us ADSK_SOURCE_ROOT="C:\Autodesk\Autodesk_Plant_Design_Suite_Premium_2013_English_Win_32bit\" FILESINUSETEXT="" REBOOT=ReallySuppress ADSK_SETUP_EXE=1

2012/12/19:08:59:11 e40234 AFC001709 Install AutoCAD® Structural Detailng Product Specific Pack Succeeded
2012/12/19:08:59:11 e40234 AFC001709 Installing Web Services Enhancements (WSE) 3.0 for Microsoft .NET: ADSK_EULA_STATUS=#1 MUILANG=en-us ADSK_SOURCE_ROOT="C:\Autodesk\Autodesk_Plant_Design_Suite_Premium_2013_English_Win_32bit\" FILESINUSETEXT="" REBOOT=ReallySuppress ADSK_SETUP_EXE=1

2012/12/19:08:59:24 e40234 AFC001709 Install Web Services Enhancements (WSE) 3.0 for Microsoft .NET Succeeded
2012/12/19:08:59:26 e40234 AFC001709 Installing Autodesk® Navisworks® Simulate 2013: TRANSFORMS="C:\Autodesk\Autodesk_Plant_Design_Suite_Premium_2013_English_Win_32bit\x86\en-us\NAVSIM\roamer.mst;C:\DOCUME~1\e40234\LOCALS~1\Temp\_AI9C5.tmp\x86\NAVSIM\roamer-standalone.mst" ADSK_EULA_STATUS=#1 MUILANG=en-us ADSK_SOURCE_ROOT="C:\Autodesk\Autodesk_Plant_Design_Suite_Premium_2013_English_Win_32bit\" INSTALLDIR="C:\Program Files\Autodesk\Navisworks Simulate 2013\" FILESINUSETEXT="" REBOOT=ReallySuppress ADSK_SETUP_EXE=1

2012/12/19:09:07:12 e40234 AFC001709 Install Autodesk® Navisworks® Simulate 2013 Succeeded
2012/12/19:09:07:14 e40234 AFC001709 Installing Autodesk® Navisworks® Simulate 2013 Language Pack: TRANSFORMS="C:\DOCUME~1\e40234\LOCALS~1\Temp\_AI9C5.tmp\_laCAE.tmp.mst" ADSK_EULA_STATUS=#1 MUILANG=en-us ADSK_SOURCE_ROOT="C:\Autodesk\Autodesk_Plant_Design_Suite_Premium_2013_English_Win_32bit\" INSTALLDIR="C:\Program Files\Autodesk\Navisworks Simulate 2013\" FILESINUSETEXT="" REBOOT=ReallySuppress ADSK_SETUP_EXE=1

2012/12/19:09:07:59 e40234 AFC001709 Install Autodesk® Navisworks® Simulate 2013 Language Pack Succeeded
2012/12/19:09:07:59 e40234 AFC001709 Installing Navisworks® Simulate 2013 - 2013 DWG File Reader: ADSK_EULA_STATUS=#1 MUILANG=en-us ADSK_SOURCE_ROOT="C:\Autodesk\Autodesk_Plant_Design_Suite_Premium_2013_English_Win_32bit\" FILESINUSETEXT="" REBOOT=ReallySuppress ADSK_SETUP_EXE=1

2012/12/19:09:09:38 e40234 AFC001709 Install Navisworks® Simulate 2013 - 2013 DWG File Reader Succeeded
2012/12/19:09:09:38 e40234 AFC001709 Installing Navisworks® Simulate 2013 - 2012 DWG File Reader: ADSK_EULA_STATUS=#1 MUILANG=en-us ADSK_SOURCE_ROOT="C:\Autodesk\Autodesk_Plant_Design_Suite_Premium_2013_English_Win_32bit\" FILESINUSETEXT="" REBOOT=ReallySuppress ADSK_SETUP_EXE=1

2012/12/19:09:10:25 e40234 AFC001709 Install Navisworks® Simulate 2013 - 2012 DWG File Reader Succeeded
2012/12/19:09:10:25 e40234 AFC001709 Installing Navisworks® Simulate 2013 - 2011 DWG File Reader: ADSK_EULA_STATUS=#1 MUILANG=en-us ADSK_SOURCE_ROOT="C:\Autodesk\Autodesk_Plant_Design_Suite_Premium_2013_English_Win_32bit\" FILESINUSETEXT="" REBOOT=ReallySuppress ADSK_SETUP_EXE=1

2012/12/19:09:12:39 e40234 AFC001709 Install Navisworks® Simulate 2013 - 2011 DWG File Reader Succeeded
2012/12/19:09:12:39 e40234 AFC001709 Installing Navisworks® Simulate 2013 - 2010 DWG File Reader: ADSK_EULA_STATUS=#1 MUILANG=en-us ADSK_SOURCE_ROOT="C:\Autodesk\Autodesk_Plant_Design_Suite_Premium_2013_English_Win_32bit\" FILESINUSETEXT="" REBOOT=ReallySuppress ADSK_SETUP_EXE=1

2012/12/19:09:14:18 e40234 AFC001709 Install Navisworks® Simulate 2013 - 2010 DWG File Reader Succeeded
2012/12/19:09:14:18 e40234 AFC001709 Installing Navisworks® Simulate 2013 - 2009 DWG File Reader: ADSK_EULA_STATUS=#1 MUILANG=en-us ADSK_SOURCE_ROOT="C:\Autodesk\Autodesk_Plant_Design_Suite_Premium_2013_English_Win_32bit\" FILESINUSETEXT="" REBOOT=ReallySuppress ADSK_SETUP_EXE=1

2012/12/19:09:15:31 e40234 AFC001709 Install Navisworks® Simulate 2013 - 2009 DWG File Reader Succeeded
2012/12/19:09:15:31 e40234 AFC001709 Installing Navisworks® Simulate 2013 - 2008 DWG File Reader: ADSK_EULA_STATUS=#1 MUILANG=en-us ADSK_SOURCE_ROOT="C:\Autodesk\Autodesk_Plant_Design_Suite_Premium_2013_English_Win_32bit\" FILESINUSETEXT="" REBOOT=ReallySuppress ADSK_SETUP_EXE=1

2012/12/19:09:16:19 e40234 AFC001709 Install Navisworks® Simulate 2013 - 2008 DWG File Reader Succeeded
2012/12/19:09:16:19 e40234 AFC001709 Installing Navisworks® Simulate 2013 - 2007 DWG File Reader: ADSK_EULA_STATUS=#1 MUILANG=en-us ADSK_SOURCE_ROOT="C:\Autodesk\Autodesk_Plant_Design_Suite_Premium_2013_English_Win_32bit\" FILESINUSETEXT="" REBOOT=ReallySuppress ADSK_SETUP_EXE=1

2012/12/19:09:17:10 e40234 AFC001709 Install Navisworks® Simulate 2013 - 2007 DWG File Reader Succeeded
2012/12/19:09:17:11 e40234 AFC001709 Installing Autodesk® Navisworks® 32 bit Exporter Plug-ins: TRANSFORMS="C:\Autodesk\Autodesk_Plant_Design_Suite_Premium_2013_English_Win_32bit\x86\en-us\NWEXPORT\32bit_Exporters.mst;C:\DOCUME~1\e40234\LOCALS~1\Temp\_AI9C5.tmp\x86\NWEXPORT\32bit_Exporters-standalone.mst" ADSK_EULA_STATUS=#1 MUILANG=en-us ADSK_SOURCE_ROOT="C:\Autodesk\Autodesk_Plant_Design_Suite_Premium_2013_English_Win_32bit\" INSTALLDIR="C:\Program Files\Autodesk\Navisworks 2013 32 bit Exporter Plug-ins\" FILESINUSETEXT="" REBOOT=ReallySuppress ADSK_SETUP_EXE=1

2012/12/19:09:18:36 e40234 AFC001709 Install Autodesk® Navisworks® 32 bit Exporter Plug-ins Succeeded
2012/12/19:09:18:37 e40234 AFC001709 Installing Autodesk® Navisworks® 32 bit Exporter Plug-ins Language Pack: TRANSFORMS="C:\DOCUME~1\e40234\LOCALS~1\Temp\_AI9C5.tmp\_laCDA.tmp.mst" ADSK_EULA_STATUS=#1 MUILANG=en-us ADSK_SOURCE_ROOT="C:\Autodesk\Autodesk_Plant_Design_Suite_Premium_2013_English_Win_32bit\" INSTALLDIR="C:\Program Files\Autodesk\Navisworks 2013 32 bit Exporter Plug-ins\" FILESINUSETEXT="" REBOOT=ReallySuppress ADSK_SETUP_EXE=1

2012/12/19:09:18:51 e40234 AFC001709 Install Autodesk® Navisworks® 32 bit Exporter Plug-ins Language Pack Succeeded
2012/12/19:09:18:51 e40234 AFC001709 Installing Autodesk® DirectConnect 2013: ADSK_EULA_STATUS=#1 MUILANG=en-us ADSK_SOURCE_ROOT="C:\Autodesk\Autodesk_Plant_Design_Suite_Premium_2013_English_Win_32bit\" FILESINUSETEXT="" REBOOT=ReallySuppress ADSK_SETUP_EXE=1

2012/12/19:09:24:32 e40234 AFC001709 Install Autodesk® DirectConnect 2013 Succeeded
2012/12/19:09:24:32 e40234 AFC001709 Installing Autodesk® Material Library 2013 - Medium Resolution Image Library: ADSK_EULA_STATUS=#1 MUILANG=en-us ADSK_SOURCE_ROOT="C:\Autodesk\Autodesk_Plant_Design_Suite_Premium_2013_English_Win_32bit\" FILESINUSETEXT="" REBOOT=ReallySuppress ADSK_SETUP_EXE=1

2012/12/19:09:31:45 e40234 AFC001709 Install Autodesk® Material Library 2013 - Medium Resolution Image Library Succeeded
2012/12/19:09:31:57 e40234 AFC001709 Installing Autodesk® Showcase® 2013: TRANSFORMS="C:\DOCUME~1\e40234\LOCALS~1\Temp\_AI9C5.tmp\x86\Showcase\AutodeskShowcase7.0-standalone.mst" ADSK_EULA_STATUS=#1 MUILANG=en-us ADSK_SOURCE_ROOT="C:\Autodesk\Autodesk_Plant_Design_Suite_Premium_2013_English_Win_32bit\" INSTALLDIR="C:\Program Files\Autodesk\Showcase 2013\" FILESINUSETEXT="" REBOOT=ReallySuppress ADSK_SETUP_EXE=1

2012/12/19:09:52:23 e40234 AFC001709 Install Autodesk® Showcase® 2013 Succeeded
2012/12/19:09:52:27 e40234 AFC001709 Installing Autodesk® SketchBook® Designer 2013: TRANSFORMS="C:\DOCUME~1\e40234\LOCALS~1\Temp\_AI9C5.tmp\x86\SBD\SBD-standalone.mst" ADSK_EULA_STATUS=#1 MUILANG=en-us ADSK_SOURCE_ROOT="C:\Autodesk\Autodesk_Plant_Design_Suite_Premium_2013_English_Win_32bit\" INSTALLDIR="C:\Program Files\Autodesk\SketchBookDesigner2013\" FILESINUSETEXT="" REBOOT=ReallySuppress ADSK_SETUP_EXE=1

2012/12/19:09:56:38 e40234 AFC001709 Install Autodesk® SketchBook® Designer 2013 Succeeded
2012/12/19:09:56:44 e40234 AFC001709 Installing Autodesk® SketchBook® Designer for AutoCAD® 2013: TRANSFORMS="C:\DOCUME~1\e40234\LOCALS~1\Temp\_AI9C5.tmp\x86\SBDACAD\SBDACAD-standalone.mst" ADSK_EULA_STATUS=#1 MUILANG=en-us ADSK_SOURCE_ROOT="C:\Autodesk\Autodesk_Plant_Design_Suite_Premium_2013_English_Win_32bit\" INSTALLDIR="C:\Program Files\Autodesk\ApplicationPlugins\SBD.bundle\" FILESINUSETEXT="" REBOOT=ReallySuppress ADSK_SETUP_EXE=1

2012/12/19:09:58:50 e40234 AFC001709 Install Autodesk® SketchBook® Designer for AutoCAD® 2013 Failed Installation aborted, Result=1603
2012/12/19:10:15:02 e40234 AFC001709 Rollback Autodesk® Showcase® 2013 Succeeded
2012/12/19:10:15:55 e40234 AFC001709 Rollback Autodesk® Material Library 2013 - Medium Resolution Image Library Succeeded
2012/12/19:10:18:21 e40234 AFC001709 Rollback Autodesk® DirectConnect 2013 Succeeded
2012/12/19:10:18:24 e40234 AFC001709 Rollback Autodesk® Navisworks® 32 bit Exporter Plug-ins Language Pack Succeeded
2012/12/19:10:19:10 e40234 AFC001709 Rollback Autodesk® Navisworks® 32 bit Exporter Plug-ins Succeeded
2012/12/19:10:20:05 e40234 AFC001709 Rollback Navisworks® Simulate 2013 - 2007 DWG File Reader Succeeded
2012/12/19:10:20:42 e40234 AFC001709 Rollback Navisworks® Simulate 2013 - 2008 DWG File Reader Succeeded
2012/12/19:10:21:17 e40234 AFC001709 Rollback Navisworks® Simulate 2013 - 2009 DWG File Reader Succeeded
2012/12/19:10:22:30 e40234 AFC001709 Rollback Navisworks® Simulate 2013 - 2010 DWG File Reader Succeeded
2012/12/19:10:23:44 e40234 AFC001709 Rollback Navisworks® Simulate 2013 - 2011 DWG File Reader Succeeded
2012/12/19:10:24:48 e40234 AFC001709 Rollback Navisworks® Simulate 2013 - 2012 DWG File Reader Succeeded
2012/12/19:10:25:42 e40234 AFC001709 Rollback Navisworks® Simulate 2013 - 2013 DWG File Reader Succeeded
2012/12/19:10:25:54 e40234 AFC001709 Rollback Autodesk® Navisworks® Simulate 2013 Language Pack Succeeded
2012/12/19:10:37:55 e40234 AFC001709 Rollback Autodesk® Navisworks® Simulate 2013 Succeeded
2012/12/19:10:38:04 e40234 AFC001709 Rollback AutoCAD® Structural Detailng Product Specific Pack Succeeded
2012/12/19:10:38:38 e40234 AFC001709 Rollback AutoCAD® Structural Detailing 2013 Language Pack Succeeded
2012/12/19:10:42:44 e40234 AFC001709 Rollback AutoCAD® Structural Detailing 2013 Succeeded
2012/12/19:10:43:21 e40234 AFC001709 Rollback Autodesk® Material Library 2013 - Low Resolution Image Library Succeeded
2012/12/19:10:43:59 e40234 AFC001709 Rollback Autodesk® Material Library 2013 - Base Image Library Succeeded
2012/12/19:10:44:42 e40234 AFC001709 Rollback Autodesk® Material Library 2013 Succeeded
2012/12/19:10:44:51 e40234 AFC001709 Rollback Autodesk® Revit® Structure 2013 Language Pack Succeeded
2012/12/19:10:50:47 e40234 AFC001709 Rollback Autodesk® Revit® Structure 2013 Succeeded
2012/12/19:10:50:47 e40234 AFC001709 Rollback Microsoft Visual C++ 2005 SP1 Redistributable ATL Security Update (x86) Failed Installation aborted, Result=1619
2012/12/19:10:51:04 e40234 AFC001709 Rollback Microsoft Visual C++ 2008 KB958314 (OpenMP) (x86) Succeeded
2012/12/19:10:51:30 e40234 AFC001709 Rollback Microsoft Visual C++ 2008 KB958314 (CRT) (x86) Succeeded
2012/12/19:10:51:53 e40234 AFC001709 Rollback Microsoft Visual C++ 2008 KB958314 (MFC) (x86) Succeeded
2012/12/19:10:52:10 e40234 AFC001709 Rollback Microsoft Visual C++ 2008 KB958314 (ATL) (x86) Succeeded
2012/12/19:10:52:10 e40234 AFC001709 Rollback Microsoft Visual C++ 2005 Redistributable (x86) Failed Installation aborted, Result=1619
2012/12/19:10:52:11 e40234 AFC001709 Rollback Autodesk Cloud sync Failed Failure is ignored, Result=1603
2012/12/19:10:52:26 e40234 AFC001709 Rollback AutoCAD® 2013 Product Specific Pack Succeeded
2012/12/19:10:53:02 e40234 AFC001709 Rollback AutoCAD® 2013 Language Pack Succeeded
2012/12/19:10:56:33 e40234 AFC001709 Rollback AutoCAD® 2013 Succeeded
2012/12/19:10:56:42 e40234 AFC001709 Rollback AutoCAD® Plant 3D 2013 Product Specific Pack Succeeded
2012/12/19:10:57:37 e40234 AFC001709 Rollback AutoCAD® Plant 3D 2013 Language Pack Succeeded
2012/12/19:11:05:15 e40234 AFC001709 Rollback AutoCAD® Plant 3D 2013 Succeeded
2012/12/19:11:05:19 e40234 AFC001709 Rollback Autodesk Content Service Language Pack Succeeded
2012/12/19:11:06:19 e40234 AFC001709 Rollback Autodesk Content Service Succeeded
2012/12/19:11:06:19 e40234 AFC001709 Rollback FaroSDK Succeeded
2012/12/19:11:06:19 e40234 AFC001709 Rollback DirectX® Runtime Failed Failure is ignored, Result=1619
2012/12/19:11:07:03 e40234 AFC001709 Rollback Autodesk® Design Review Succeeded

 

Any ideas?

 

Thanks!

*Expert Elite*
TravisNave
Posts: 9,927
Registered: ‎01-14-2005
Message 2 of 2 (1,017 Views)

Re: AutoCAD Plant Design Suite 2013 not Installing

12-20-2012 12:49 PM in reply to: josh.beno

Yes.  The failure is with Sketchbook and is causing the entire suite to rollback.  During your install, uncheck the installation for Sketchbook (and any other program that you don't want) and the install should go fine.  According to the log, every other program installed without issue until Sketchbook failed and then uninstalled the entire suite.  Just don't install it and you'll be good to go!

Travis Nave Send TravisNave a Private Message                       Need help in your post? Mention me with @TravisNave

You are not logged in.

Log into access your profile, ask and answer questions, share ideas and more. Haven't signed up yet? Register

Announcements
Are you familiar with the Autodesk Expert Elites? The Expert Elite program is made up of customers that help other customers by sharing knowledge and exemplifying an engaging style of collaboration. To learn more, please visit our Expert Elite website.

Need installation help?

Start with some of our most frequented solutions to get help installing your software.

Ask the Community


Up & Ready Blog

Boldly Install, Configure and Deploy Autodesk Software.

AutodeskHelp Blog

Your one-stop shop for the latest solutions, breaking news, and behind the scenes access to the world of Autodesk support.

Connect with Us

Twitter

Pinterest

Blog

Youtube